Location: Coopersdale
(40.3556°N, 78.9372°W)
Time: 09:47:07
(UTC+00:00)

Explorer 7 - Visible Passes

Search period start: 24 January 2021 00:00
Search period end: 03 February 2021 00:00
Orbit: 484 x 678 km, 50.3° (Epoch: 23 January)

Date Brightness Start Highest point End Pass type
(mag) Time Alt. Az. Time Alt. Az. Time Alt. Az.
24 Jan 7.7 10:59:59 29° NNW 11:00:25 29° NNW 11:04:00 10° NE visible
25 Jan 8.0 11:04:30 23° NNW 11:05:12 24° NNW 11:08:32 10° NE visible
26 Jan 9.9 09:32:40 10° NE 09:32:40 10° NE 09:32:42 10° NE visible
26 Jan 8.3 11:08:57 19° NNW 11:10:02 21° N 11:13:09 10° NE visible
27 Jan 9.8 09:37:04 11° NE 09:37:04 11° NE 09:37:11 10° NE visible
27 Jan 8.5 11:13:22 16° NNW 11:14:52 19° N 11:17:53 10° NE visible
28 Jan 9.7 09:41:27 11° NE 09:41:27 11° NE 09:41:41 10° NE visible
28 Jan 8.6 11:17:44 14° NNW 11:19:44 19° N 11:22:44 10° NE visible
29 Jan 9.6 09:45:48 12° NE 09:45:48 12° NE 09:46:13 10° NE visible
29 Jan 8.6 11:22:05 13° NW 11:24:34 21° N 11:27:43 10° ENE visible
30 Jan 9.5 09:50:08 13° NE 09:50:08 13° NE 09:50:51 10° NE visible
30 Jan 8.4 11:26:26 11° NW 11:29:23 24° NNE 11:32:45 10° ENE visible
31 Jan 9.3 09:54:29 15° NNE 09:54:29 15° NNE 09:55:36 10° NE visible
31 Jan 8.2 11:30:47 11° NW 11:34:09 29° NNE 11:37:46 10° E visible
01 Feb 9.1 09:58:50 17° NNE 09:58:50 17° NNE 10:00:29 10° NE visible
01 Feb 7.8 11:35:10 10° NW 11:38:52 38° NNE 11:42:45 10° E visible
02 Feb 8.9 10:03:13 19° NNE 10:03:13 19° NNE 10:05:29 10° ENE visible
02 Feb 7.3 11:39:39 10° NW 11:43:31 54° NNE 11:47:36 10° ESE visible
